This demonstration page uses our WeatherBlox Daily Observations layout. Learn more.

Left ArrowRight Arrow

39.01783, -85.05884

Hourly Observations for March 7, 2018

Temp ( °F °C ) Dew Point ( °F °C ) Humidity (%) Winds ( mph kmh ) Pressure ( in mb ) Visibility ( mi km ) Precip ( " mm )
12:05 am 00:05 Cloudy 40 4.4 33 0.6 77 77 NW 17 28 29.74 1007 10 16 N/A
12:52 am 00:52 Cloudy with Light Snow 34 1.1 32 undefined 92 92 WNW 17 28 29.74 1007 7 11 N/A
1:10 am 01:10 Cloudy with Light Snow 34 1.1 33 0.6 97 97 WNW 12 19 29.77 1008 8 13 N/A
1:26 am 01:26 Cloudy with Light Snow 34 1.1 33 0.6 97 97 WNW 12 19 29.77 1008 8 13 N/A
1:52 am 01:52 Cloudy with Light Snow 34 1.1 33 0.6 97 97 WNW 12 19 29.75 1007 7 11 N/A
2:12 am 02:12 Cloudy with Light Snow 34 1.1 33 0.6 97 97 W 9 15 29.77 1008 3 4 N/A
2:18 am 02:18 Cloudy with Light Snow 34 1.1 33 0.6 97 97 W 9 15 29.77 1008 3 4 N/A
2:52 am 02:52 Cloudy with Light Snow 32 undefined 31 -0.6 96 96 WNW 15 24 29.75 1008 2 3 N/A
2:59 am 02:59 Cloudy with Light Snow 32 undefined 31 -0.6 96 96 WNW 14 22 29.77 1008 2 2 N/A
3:07 am 03:07 Cloudy with Light Snow 32 undefined 30 -1.1 92 92 WNW 13 20 29.77 1008 2 3 N/A
3:17 am 03:17 Cloudy with Light Snow 32 undefined 31 -0.6 96 96 W 10 17 29.77 1008 5 8 N/A
3:52 am 03:52 Cloudy with Light Snow 32 undefined 31 -0.6 96 96 W 12 19 29.76 1008 5 8 N/A
4:07 am 04:07 Cloudy with Light Snow 32 undefined 32 undefined 100 100 W 10 17 29.80 1009 3 4 N/A
4:22 am 04:22 Cloudy with Light Snow 32 undefined 32 undefined 100 100 W 10 17 29.80 1009 6 10 0.01 0.25
4:42 am 04:42 Cloudy with Light Snow 32 undefined 32 undefined 100 100 W 9 15 29.80 1009 4 6 0.01 0.25
4:52 am 04:52 Cloudy with Light Snow 32 undefined 31 -0.6 96 96 W 15 24 29.78 1008 9 14 0.01 0.25
5:18 am 05:18 Cloudy with Light Snow 32 undefined 29 -1.7 88 88 W 14 22 29.80 1009 9 14 N/A
5:52 am 05:52 Partly Cloudy 31 -0.6 28 -2.2 89 89 W 14 22 29.80 1009 10 16 N/A
6:12 am 06:12 Cloudy 31 -0.6 28 -2.2 89 89 W 12 19 29.83 1010 10 16 N/A
6:52 am 06:52 Cloudy 31 -0.6 28 -2.2 89 89 W 9 15 29.82 1010 10 16 N/A
7:26 am 07:26 Cloudy 31 -0.6 28 -2.2 89 89 W 12 19 29.85 1011 10 16 N/A
7:28 am 07:28 Cloudy 31 -0.6 28 -2.2 89 89 WSW 9 15 29.85 1011 8 13 N/A
7:52 am 07:52 Cloudy with Light Snow 31 -0.6 29 -1.7 92 92 WSW 9 15 29.85 1011 4 6 N/A
8:16 am 08:16 Cloudy with Light Snow 31 -0.6 30 -1.1 96 96 W 13 20 29.88 1012 4 6 N/A
8:46 am 08:46 Cloudy with Light Snow 32 undefined 30 -1 93 93 W 12 19 29.88 1012 3 5 N/A
8:52 am 08:52 Cloudy with Light Snow 32 undefined 31 -0.6 96 96 W 13 20 29.86 1011 3 5 N/A
9:07 am 09:07 Cloudy with Light Snow 32 undefined 31 -0.6 96 96 W 10 17 29.88 1012 3 4 N/A
9:14 am 09:14 Cloudy with Light Snow 33 0.6 31 -0.6 92 92 W 15 24 29.91 1013 3 5 N/A
9:42 am 09:42 Windy with Snow Likely 33 0.6 32 undefined 96 96 NW 22 35 29.91 1013 2 2 N/A
9:52 am 09:52 Cloudy with Light Snow 33 0.6 31 -0.6 92 92 WNW 15 24 29.89 1012 2 2 N/A
10:07 am 10:07 Cloudy with Light Snow 33 0.6 30 -1.1 89 89 NW 16 26 29.91 1013 3 5 N/A
10:24 am 10:24 Cloudy with Light Snow 33 0.6 31 -0.6 92 92 NW 17 28 29.94 1014 2 3 N/A
10:28 am 10:28 Cloudy with Light Snow 32 undefined 31 -0.6 96 96 WNW 15 24 29.94 1014 1 2 0.01 0.25
10:52 am 10:52 Cloudy with Light Snow 33 0.6 31 -0.6 92 92 WNW 17 28 29.92 1013 2 3 0.04 1.02
11:07 am 11:07 Mostly Cloudy 35 1.7 31 -0.6 85 85 WNW 15 24 29.94 1014 7 11 N/A
11:21 am 11:21 Windy with Snow Likely 34 1.1 32 undefined 92 92 W 23 37 29.94 1014 2 3 N/A
11:39 am 11:39 Mostly Cloudy with Light Snow 34 1.1 31 -0.6 89 89 WNW 17 28 29.97 1015 5 8 N/A
11:52 am 11:52 Mostly Cloudy 35 1.7 31 -0.6 85 85 W 14 22 29.94 1014 9 14 N/A
12:52 pm 12:52 Cloudy 35 1.7 25 -3.9 67 67 WNW 17 28 29.94 1014 10 16 N/A
1:52 pm 13:52 Cloudy 37 2.8 25 -3.9 62 62 WNW 21 33 29.95 1014 10 16 N/A
2:52 pm 14:52 Mostly Cloudy 38 3.3 24 -4.4 57 57 W 15 24 29.95 1014 10 16 N/A
3:52 pm 15:52 Mostly Cloudy 38 3.3 21 -6.1 51 51 W 21 33 29.96 1015 10 16 N/A
4:52 pm 16:52 Mostly Cloudy 38 3.3 21 -6.1 51 51 WNW 17 28 29.97 1015 10 16 N/A
5:52 pm 17:52 Cloudy 37 2.8 22 -5.6 54 54 W 12 19 29.98 1015 10 16 N/A
6:52 pm 18:52 Cloudy 36 2.2 24 -4.4 62 62 WNW 10 17 29.99 1016 10 16 N/A
7:52 pm 19:52 Cloudy with Light Snow 35 1.7 26 -3.3 70 70 WNW 9 15 30.01 1016 9 14 N/A
8:52 pm 20:52 Cloudy 34 1.1 21 -6.1 59 59 WNW 12 19 30.01 1016 10 16 N/A
9:52 pm 21:52 Cloudy 33 0.6 20 -6.7 58 58 W 7 11 30.02 1017 10 16 N/A
10:52 pm 22:52 Cloudy 33 0.6 21 -6.1 61 61 WNW 13 20 30.01 1016 10 16 N/A
11:52 pm 23:52 Cloudy 32 undefined 23 -5 69 69 W 10 17 30.00 1016 10 16 N/A

Powered by AerisWeather